| time (UTC) | temp F | wind direction | speed MPH | gust MPH | rain 1hr in | rain 24hr in | rain mn in | humidity % | barometer mb |
| 20260507234658 | 56 | 241 | 0.0 | 7.0 | 0.00 | 0.00 | 0.00 | 47 | 1009.2 |
| 20260507234144 | 57 | 241 | 2.0 | 8.0 | 0.00 | 0.00 | 0.00 | 46 | 1009.2 |
| 20260507233637 | 57 | 252 | 4.0 | 9.0 | 0.00 | 0.00 | 0.00 | 46 | 1009.1 |
| 20260507233144 | 57 | 277 | 1.0 | 13.0 | 0.00 | 0.00 | 0.00 | 46 | 1009.2 |
| 20260507232639 | 57 | 251 | 5.0 | 13.0 | 0.00 | 0.00 | 0.00 | 45 | 1009.2 |
| 20260507232146 | 57 | 262 | 3.0 | 8.0 | 0.00 | 0.00 | 0.00 | 46 | 1009.2 |
| 20260507231620 | 58 | 247 | 2.0 | 10.0 | 0.00 | 0.00 | 0.00 | 44 | 1009.0 |
| 20260507231134 | 59 | 262 | 3.0 | 10.0 | 0.00 | 0.00 | 0.00 | 44 | 1009.0 |
| 20260507230622 | 59 | 281 | 6.0 | 13.0 | 0.00 | 0.00 | 0.00 | 43 | 1008.9 |
| 20260507230115 | 59 | 224 | 8.0 | 14.0 | 0.00 | 0.00 | 0.00 | 44 | 1008.9 |
| 20260507225632 | 59 | 297 | 5.0 | 14.0 | 0.00 | 0.00 | 0.00 | 44 | 1008.9 |
| 20260507225119 | 59 | 295 | 5.0 | 17.0 | 0.00 | 0.00 | 0.00 | 44 | 1008.9 |
| 20260507224629 | 59 | 283 | 8.0 | 16.0 | 0.00 | 0.00 | 0.00 | 44 | 1008.9 |
| 20260507224122 | 58 | 276 | 7.0 | 11.0 | 0.00 | 0.00 | 0.00 | 45 | 1008.8 |
| 20260507223635 | 59 | 305 | 4.0 | 11.0 | 0.00 | 0.00 | 0.00 | 48 | 1008.7 |
| 20260507223121 | 59 | 278 | 1.0 | 12.0 | 0.00 | 0.00 | 0.00 | 46 | 1008.6 |
| 20260507222658 | 59 | 290 | 4.0 | 12.0 | 0.00 | 0.00 | 0.00 | 46 | 1008.6 |
| 20260507222144 | 59 | 278 | 5.0 | 9.0 | 0.00 | 0.00 | 0.00 | 44 | 1008.6 |
| 20260507221658 | 59 | 263 | 1.0 | 15.0 | 0.00 | 0.00 | 0.00 | 45 | 1008.6 |
| 20260507221124 | 60 | 270 | 4.0 | 21.0 | 0.00 | 0.00 | 0.00 | 44 | 1008.6 |
| 20260507220638 | 60 | 210 | 11.0 | 20.0 | 0.00 | 0.01 | 0.00 | 42 | 1008.5 |
| 20260507220124 | 59 | 228 | 8.0 | 16.0 | 0.00 | 0.01 | 0.00 | 44 | 1008.5 |
| 20260507215618 | 59 | 249 | 6.0 | 13.0 | 0.00 | 0.01 | 0.00 | 45 | 1008.5 |
| 20260507215132 | 59 | 259 | 8.0 | 15.0 | 0.00 | 0.01 | 0.00 | 43 | 1008.5 |
| 20260507214643 | 59 | 232 | 7.0 | 15.0 | 0.00 | 0.01 | 0.00 | 44 | 1008.6 |
| 20260507214138 | 59 | 240 | 8.0 | 12.0 | 0.00 | 0.01 | 0.00 | 44 | 1008.6 |
| 20260507213624 | 59 | 262 | 3.0 | 11.0 | 0.00 | 0.01 | 0.00 | 45 | 1008.6 |
| 20260507213158 | 59 | 268 | 6.0 | 11.0 | 0.00 | 0.01 | 0.00 | 45 | 1008.6 |
| 20260507212640 | 59 | 318 | 1.0 | 8.0 | 0.00 | 0.01 | 0.00 | 45 | 1008.6 |
| 20260507212132 | 59 | 242 | 2.0 | 10.0 | 0.00 | 0.01 | 0.00 | 44 | 1008.4 |
| 20260507211647 | 59 | 257 | 4.0 | 11.0 | 0.00 | 0.01 | 0.00 | 45 | 1008.5 |
| 20260507211123 | 59 | 291 | 6.0 | 14.0 | 0.00 | 0.01 | 0.00 | 44 | 1008.5 |
| 20260507210637 | 60 | 311 | 7.0 | 14.0 | 0.00 | 0.01 | 0.00 | 47 | 1008.4 |
| 20260507210125 | 60 | 247 | 6.0 | 9.0 | 0.00 | 0.01 | 0.00 | 42 | 1008.4 |
| 20260507205639 | 59 | 10 | 0.0 | 11.0 | 0.00 | 0.01 | 0.00 | 45 | 1008.4 |
| 20260507205125 | 59 | 237 | 7.0 | 13.0 | 0.00 | 0.01 | 0.00 | 44 | 1008.5 |
| 20260507204620 | 60 | 311 | 8.0 | 13.0 | 0.00 | 0.01 | 0.00 | 42 | 1008.3 |
| 20260507204137 | 60 | 247 | 4.0 | 15.0 | 0.00 | 0.01 | 0.00 | 43 | 1008.5 |
| 20260507203624 | 60 | 270 | 7.0 | 17.0 | 0.00 | 0.01 | 0.00 | 42 | 1008.6 |
| 20260507203138 | 61 | 272 | 7.0 | 17.0 | 0.00 | 0.01 | 0.00 | 41 | 1008.6 |
| 20260507202625 | 60 | 226 | 6.0 | 13.0 | 0.00 | 0.01 | 0.00 | 43 | 1008.6 |
| 20260507202138 | 60 | 300 | 5.0 | 13.0 | 0.00 | 0.01 | 0.00 | 44 | 1008.6 |
| 20260507201625 | 60 | 258 | 8.0 | 12.0 | 0.00 | 0.01 | 0.00 | 43 | 1008.8 |
| 20260507201121 | 60 | 280 | 5.0 | 17.0 | 0.00 | 0.01 | 0.00 | 45 | 1008.9 |
| 20260507200636 | 60 | 270 | 9.0 | 17.0 | 0.00 | 0.01 | 0.00 | 41 | 1008.8 |
| 20260507200143 | 60 | 280 | 7.0 | 11.0 | 0.00 | 0.01 | 0.00 | 42 | 1008.9 |
| 20260507195658 | 60 | 285 | 8.0 | 12.0 | 0.00 | 0.01 | 0.00 | 46 | 1008.8 |
| 20260507195123 | 60 | 295 | 8.0 | 12.0 | 0.00 | 0.01 | 0.00 | 42 | 1008.8 |
| 20260507194637 | 60 | 297 | 7.0 | 12.0 | 0.00 | 0.01 | 0.00 | 43 | 1008.9 |
| 20260507194125 | 60 | 253 | 5.0 | 10.0 | 0.00 | 0.01 | 0.00 | 44 | 1008.9 |
| 20260507193619 | 60 | 265 | 6.0 | 13.0 | 0.00 | 0.01 | 0.00 | 42 | 1009.0 |
| 20260507193130 | 61 | 310 | 6.0 | 19.0 | 0.00 | 0.01 | 0.00 | 39 | 1009.1 |
| 20260507192624 | 63 | 230 | 13.0 | 19.0 | 0.00 | 0.01 | 0.00 | 38 | 1009.0 |
| 20260507192116 | 62 | 218 | 4.0 | 14.0 | 0.00 | 0.01 | 0.00 | 41 | 1009.0 |
| 20260507191629 | 62 | 213 | 5.0 | 14.0 | 0.00 | 0.01 | 0.00 | 42 | 1009.1 |
| 20260507191123 | 61 | 303 | 5.0 | 16.0 | 0.00 | 0.01 | 0.00 | 45 | 1009.1 |
| 20260507190616 | 61 | 257 | 9.0 | 16.0 | 0.00 | 0.01 | 0.00 | 44 | 1009.2 |
| 20260507190131 | 61 | 277 | 6.0 | 16.0 | 0.00 | 0.01 | 0.00 | 43 | 1009.1 |
| 20260507185618 | 61 | 284 | 7.0 | 16.0 | 0.00 | 0.01 | 0.00 | 45 | 1009.2 |
| 20260507185132 | 61 | 296 | 4.0 | 16.0 | 0.00 | 0.01 | 0.00 | 41 | 1009.2 |
| 20260507184641 | 62 | 244 | 6.0 | 16.0 | 0.00 | 0.01 | 0.00 | 41 | 1009.2 |
| 20260507184159 | 62 | 277 | 8.0 | 15.0 | 0.00 | 0.01 | 0.00 | 47 | 1009.2 |
| 20260507183624 | 62 | 288 | 6.0 | 13.0 | 0.00 | 0.01 | 0.00 | 47 | 1009.1 |
| 20260507183119 | 61 | 236 | 7.0 | 17.0 | 0.00 | 0.01 | 0.00 | 43 | 1009.2 |
| 20260507182635 | 61 | 222 | 11.0 | 17.0 | 0.00 | 0.01 | 0.00 | 43 | 1009.2 |
| 20260507182120 | 61 | 247 | 3.0 | 20.0 | 0.00 | 0.01 | 0.00 | 45 | 1009.2 |
| 20260507181635 | 61 | 281 | 12.0 | 20.0 | 0.00 | 0.01 | 0.00 | 44 | 1009.3 |
| 20260507181122 | 60 | 232 | 7.0 | 14.0 | 0.00 | 0.01 | 0.00 | 45 | 1009.3 |
| 20260507180635 | 60 | 360 | 4.0 | 12.0 | 0.00 | 0.01 | 0.00 | 46 | 1009.4 |
| 20260507180121 | 59 | 306 | 4.0 | 12.0 | 0.00 | 0.01 | 0.00 | 42 | 1009.4 |
| 20260507175635 | 59 | 295 | 4.0 | 7.0 | 0.00 | 0.01 | 0.00 | 43 | 1009.6 |
| 20260507175122 | 60 | 232 | 2.0 | 14.0 | 0.00 | 0.01 | 0.00 | 42 | 1009.6 |
| 20260507174635 | 60 | 239 | 5.0 | 14.0 | 0.00 | 0.01 | 0.00 | 49 | 1009.6 |
| 20260507174144 | 59 | 276 | 5.0 | 13.0 | 0.00 | 0.01 | 0.00 | 46 | 1009.8 |
| 20260507173637 | 59 | 332 | 8.0 | 13.0 | 0.00 | 0.01 | 0.00 | 47 | 1009.8 |
| 20260507173123 | 59 | 302 | 6.0 | 12.0 | 0.00 | 0.01 | 0.00 | 47 | 1009.8 |
| 20260507172618 | 58 | 307 | 7.0 | 14.0 | 0.00 | 0.01 | 0.00 | 44 | 1010.0 |
| 20260507172127 | 58 | 315 | 4.0 | 14.0 | 0.00 | 0.01 | 0.00 | 43 | 1010.0 |
| 20260507171622 | 58 | 274 | 7.0 | 12.0 | 0.00 | 0.01 | 0.00 | 43 | 1010.1 |
| 20260507171116 | 58 | 295 | 3.0 | 15.0 | 0.00 | 0.01 | 0.00 | 47 | 1010.2 |
| 20260507170630 | 58 | 324 | 10.0 | 18.0 | 0.00 | 0.01 | 0.00 | 49 | 1010.3 |
| 20260507170116 | 59 | 291 | 10.0 | 18.0 | 0.00 | 0.01 | 0.00 | 42 | 1010.3 |
| 20260507165631 | 59 | 235 | 2.0 | 9.0 | 0.00 | 0.01 | 0.00 | 47 | 1010.3 |
| 20260507165137 | 58 | 237 | 5.0 | 18.0 | 0.00 | 0.01 | 0.00 | 47 | 1010.4 |
| 20260507164624 | 58 | 277 | 9.0 | 18.0 | 0.00 | 0.01 | 0.00 | 47 | 1010.4 |
| 20260507164119 | 58 | 325 | 9.0 | 13.0 | 0.00 | 0.01 | 0.00 | 45 | 1010.5 |
| 20260507163634 | 58 | 315 | 6.0 | 15.0 | 0.00 | 0.01 | 0.00 | 48 | 1010.5 |
| 20260507163140 | 58 | 243 | 10.0 | 15.0 | 0.00 | 0.01 | 0.00 | 50 | 1010.8 |
| 20260507162656 | 58 | 34 | 1.0 | 5.0 | 0.00 | 0.01 | 0.00 | 45 | 1010.6 |
| 20260507162122 | 58 | 313 | 2.0 | 8.0 | 0.00 | 0.01 | 0.00 | 44 | 1010.7 |
| 20260507161636 | 58 | 191 | 0.0 | 14.0 | 0.00 | 0.01 | 0.00 | 43 | 1010.8 |
| 20260507161143 | 58 | 258 | 10.0 | 14.0 | 0.00 | 0.01 | 0.00 | 45 | 1010.9 |
| 20260507160635 | 58 | 232 | 7.0 | 12.0 | 0.00 | 0.01 | 0.00 | 46 | 1010.8 |
| 20260507160122 | 57 | 248 | 7.0 | 14.0 | 0.00 | 0.01 | 0.00 | 44 | 1010.9 |
| 20260507155638 | 57 | 207 | 6.0 | 15.0 | 0.00 | 0.01 | 0.00 | 45 | 1010.9 |
| 20260507155132 | 57 | 274 | 8.0 | 15.0 | 0.00 | 0.01 | 0.00 | 51 | 1011.0 |
| 20260507154619 | 56 | 286 | 7.0 | 12.0 | 0.00 | 0.01 | 0.00 | 46 | 1011.1 |
| 20260507154127 | 56 | 322 | 4.0 | 14.0 | 0.00 | 0.01 | 0.00 | 49 | 1011.1 |
| 20260507153620 | 56 | 307 | 9.0 | 14.0 | 0.00 | 0.01 | 0.00 | 48 | 1011.1 |
| 20260507153134 | 56 | 324 | 5.0 | 11.0 | 0.00 | 0.01 | 0.00 | 48 | 1011.1 |
| 20260507152629 | 57 | 336 | 7.0 | 11.0 | 0.00 | 0.01 | 0.00 | 48 | 1011.2 |
| 20260507152122 | 57 | 16 | 7.0 | 11.0 | 0.00 | 0.01 | 0.00 | 51 | 1011.2 |
| 20260507151615 | 56 | 316 | 8.0 | 11.0 | 0.00 | 0.01 | 0.00 | 53 | 1011.3 |
| 20260507151130 | 56 | 267 | 4.0 | 10.0 | 0.00 | 0.01 | 0.00 | 49 | 1011.4 |
| 20260507150622 | 56 | 276 | 5.0 | 10.0 | 0.00 | 0.01 | 0.00 | 48 | 1011.6 |
| 20260507150135 | 55 | 10 | 4.0 | 9.0 | 0.00 | 0.01 | 0.00 | 50 | 1011.7 |
| 20260507145623 | 55 | 360 | 4.0 | 9.0 | 0.00 | 0.01 | 0.00 | 48 | 1011.7 |
| 20260507145136 | 55 | 297 | 5.0 | 8.0 | 0.00 | 0.01 | 0.00 | 51 | 1011.8 |
| 20260507144624 | 55 | 310 | 2.0 | 10.0 | 0.00 | 0.01 | 0.00 | 47 | 1011.9 |
| 20260507144159 | 55 | 211 | 5.0 | 13.0 | 0.00 | 0.01 | 0.00 | 52 | 1012.0 |
| 20260507143623 | 55 | 10 | 3.0 | 12.0 | 0.00 | 0.01 | 0.00 | 58 | 1012.0 |
| 20260507143137 | 55 | 360 | 3.0 | 12.0 | 0.00 | 0.01 | 0.00 | 50 | 1012.0 |
| 20260507142625 | 55 | 229 | 6.0 | 12.0 | 0.00 | 0.01 | 0.00 | 49 | 1012.0 |
| 20260507142118 | 54 | 282 | 2.0 | 12.0 | 0.00 | 0.01 | 0.00 | 51 | 1012.2 |
| 20260507141634 | 54 | 284 | 7.0 | 12.0 | 0.00 | 0.01 | 0.00 | 52 | 1012.2 |
| 20260507141123 | 54 | 320 | 7.0 | 11.0 | 0.00 | 0.01 | 0.00 | 51 | 1012.3 |
| 20260507140637 | 54 | 300 | 6.0 | 11.0 | 0.00 | 0.01 | 0.00 | 49 | 1012.4 |
| 20260507140123 | 54 | 261 | 2.0 | 8.0 | 0.00 | 0.01 | 0.00 | 55 | 1012.5 |
| 20260507135639 | 54 | 99 | 0.0 | 8.0 | 0.00 | 0.01 | 0.00 | 52 | 1012.6 |
| 20260507135146 | 53 | 139 | 4.0 | 8.0 | 0.00 | 0.01 | 0.00 | 55 | 1012.6 |
| 20260507134620 | 53 | 96 | 0.0 | 3.0 | 0.00 | 0.01 | 0.00 | 56 | 1012.6 |
| 20260507134138 | 52 | 103 | 1.0 | 4.0 | 0.00 | 0.01 | 0.00 | 56 | 1012.7 |
| 20260507133647 | 52 | 85 | 1.0 | 5.0 | 0.00 | 0.01 | 0.00 | 54 | 1012.6 |
| 20260507133141 | 53 | 73 | 2.0 | 4.0 | 0.00 | 0.01 | 0.00 | 54 | 1012.7 |
| 20260507132637 | 53 | 108 | 1.0 | 4.0 | 0.00 | 0.01 | 0.00 | 56 | 1012.7 |
| 20260507132123 | 52 | 144 | 0.0 | 2.0 | 0.00 | 0.01 | 0.00 | 58 | 1012.8 |
| 20260507131617 | 52 | 141 | 0.0 | 3.0 | 0.00 | 0.01 | 0.00 | 57 | 1012.9 |
| 20260507131133 | 52 | 141 | 1.0 | 3.0 | 0.00 | 0.01 | 0.00 | 58 | 1012.8 |
| 20260507130621 | 51 | 155 | 1.0 | 4.0 | 0.00 | 0.01 | 0.00 | 59 | 1012.9 |
| 20260507130156 | 50 | 216 | 0.0 | 4.0 | 0.00 | 0.01 | 0.00 | 59 | 1013.0 |
| 20260507125621 | 50 | 232 | 1.0 | 4.0 | 0.00 | 0.01 | 0.00 | 61 | 1012.9 |
| 20260507125135 | 50 | 242 | 0.0 | 4.0 | 0.00 | 0.01 | 0.00 | 61 | 1012.9 |
| 20260507124644 | 51 | 194 | 0.0 | 3.0 | 0.00 | 0.01 | 0.00 | 62 | 1012.9 |
| 20260507124138 | 51 | 200 | 1.0 | 5.0 | 0.00 | 0.01 | 0.00 | 62 | 1013.0 |
| 20260507123624 | 51 | 170 | 0.0 | 6.0 | 0.00 | 0.01 | 0.00 | 67 | 1013.1 |
| 20260507123118 | 50 | 195 | 0.0 | 2.0 | 0.00 | 0.01 | 0.00 | 64 | 1013.1 |
| 20260507122636 | 50 | 195 | 0.0 | 2.0 | 0.00 | 0.01 | 0.00 | 65 | 1013.1 |
| 20260507122123 | 50 | 197 | 0.0 | 2.0 | 0.00 | 0.01 | 0.00 | 70 | 1013.2 |
| 20260507121638 | 49 | 197 | 0.0 | 2.0 | 0.00 | 0.01 | 0.00 | 70 | 1013.1 |
| 20260507121126 | 47 | 213 | 0.0 | 0.0 | 0.00 | 0.01 | 0.00 | 69 | 1013.1 |
| 20260507120619 | 48 | 214 | 0.0 | 2.0 | 0.00 | 0.01 | 0.00 | 71 | 1013.1 |
| 20260507120134 | 47 | 214 | 0.0 | 2.0 | 0.00 | 0.01 | 0.00 | 73 | 1013.1 |
| 20260507115637 | 47 | 214 | 0.0 | 2.0 | 0.00 | 0.01 | 0.00 | 75 | 1013.1 |
| 20260507115130 | 46 | 214 | 0.0 | 2.0 | 0.00 | 0.01 | 0.00 | 76 | 1013.1 |
| 20260507114617 | 45 | 214 | 0.0 | 0.0 | 0.00 | 0.01 | 0.00 | 78 | 1013.0 |
| 20260507114131 | 45 | 216 | 0.0 | 0.0 | 0.00 | 0.01 | 0.00 | 79 | 1012.9 |
| 20260507113624 | 44 | 216 | 0.0 | 0.0 | 0.00 | 0.01 | 0.00 | 81 | 1013.0 |
| 20260507113137 | 44 | 216 | 0.0 | 0.0 | 0.00 | 0.01 | 0.00 | 83 | 1013.0 |
| 20260507112625 | 43 | 216 | 0.0 | 0.0 | 0.00 | 0.01 | 0.00 | 84 | 1012.9 |
| 20260507112118 | 42 | 216 | 0.0 | 0.0 | 0.00 | 0.01 | 0.00 | 85 | 1012.8 |
| 20260507111633 | 41 | 216 | 0.0 | 0.0 | 0.00 | 0.01 | 0.00 | 85 | 1012.7 |
| 20260507111143 | 40 | 216 | 0.0 | 0.0 | 0.00 | 0.01 | 0.00 | 85 | 1012.7 |
| 20260507110636 | 40 | 216 | 0.0 | 1.0 | 0.00 | 0.01 | 0.00 | 86 | 1012.7 |
| 20260507110122 | 40 | 216 | 0.0 | 1.0 | 0.00 | 0.01 | 0.00 | 86 | 1012.6 |
| 20260507105618 | 39 | 216 | 0.0 | 0.0 | 0.00 | 0.01 | 0.00 | 86 | 1012.5 |
| 20260507105132 | 38 | 216 | 0.0 | 2.0 | 0.00 | 0.01 | 0.00 | 86 | 1012.4 |
| 20260507104616 | 38 | 216 | 1.0 | 3.0 | 0.00 | 0.01 | 0.00 | 86 | 1012.5 |
| 20260507104132 | 37 | 216 | 0.0 | 3.0 | 0.00 | 0.01 | 0.00 | 86 | 1012.4 |
| 20260507103640 | 37 | 218 | 0.0 | 3.0 | 0.00 | 0.01 | 0.00 | 86 | 1012.3 |
| 20260507103134 | 37 | 218 | 1.0 | 3.0 | 0.00 | 0.01 | 0.00 | 85 | 1012.3 |
| 20260507102622 | 37 | 153 | 0.0 | 0.0 | 0.00 | 0.01 | 0.00 | 85 | 1012.2 |
| 20260507102134 | 38 | 153 | 0.0 | 0.0 | 0.00 | 0.01 | 0.00 | 85 | 1012.2 |
| 20260507101621 | 38 | 153 | 0.0 | 0.0 | 0.00 | 0.01 | 0.00 | 85 | 1012.2 |
| 20260507101137 | 38 | 153 | 0.0 | 0.0 | 0.00 | 0.01 | 0.00 | 84 | 1012.2 |
| 20260507100627 | 38 | 153 | 0.0 | 0.0 | 0.00 | 0.01 | 0.00 | 84 | 1012.2 |
| 20260507100142 | 38 | 151 | 0.0 | 0.0 | 0.00 | 0.01 | 0.00 | 84 | 1012.2 |
| 20260507095616 | 39 | 119 | 0.0 | 0.0 | 0.00 | 0.01 | 0.00 | 83 | 1012.2 |
| 20260507095130 | 39 | 118 | 0.0 | 0.0 | 0.00 | 0.01 | 0.00 | 82 | 1012.1 |
| 20260507094624 | 39 | 118 | 0.0 | 0.0 | 0.00 | 0.01 | 0.00 | 82 | 1012.1 |
| 20260507094119 | 40 | 113 | 0.0 | 0.0 | 0.00 | 0.01 | 0.00 | 81 | 1012.2 |
| 20260507093633 | 40 | 77 | 0.0 | 0.0 | 0.00 | 0.01 | 0.00 | 80 | 1012.2 |
| 20260507093121 | 40 | 76 | 0.0 | 0.0 | 0.00 | 0.01 | 0.00 | 78 | 1012.2 |
| 20260507092635 | 41 | 76 | 0.0 | 0.0 | 0.00 | 0.01 | 0.00 | 76 | 1012.1 |
| 20260507092121 | 41 | 76 | 0.0 | 0.0 | 0.00 | 0.01 | 0.00 | 75 | 1012.1 |
| 20260507091655 | 42 | 76 | 0.0 | 0.0 | 0.00 | 0.01 | 0.00 | 73 | 1012.1 |
| 20260507091122 | 43 | 76 | 0.0 | 0.0 | 0.00 | 0.01 | 0.00 | 72 | 1012.1 |
| 20260507090653 | 43 | 76 | 0.0 | 0.0 | 0.00 | 0.01 | 0.01 | 71 | 1012.0 |
| 20260507090140 | 44 | 76 | 0.0 | 4.0 | 0.00 | 0.01 | 0.01 | 70 | 1011.9 |
| 20260507085636 | 45 | 76 | 1.0 | 4.0 | 0.00 | 0.01 | 0.01 | 68 | 1011.9 |
| 20260507085122 | 45 | 77 | 2.0 | 5.0 | 0.00 | 0.01 | 0.01 | 66 | 1011.9 |
| 20260507084657 | 45 | 68 | 3.0 | 5.0 | 0.00 | 0.01 | 0.01 | 68 | 1011.9 |
| 20260507084123 | 46 | 60 | 1.0 | 3.0 | 0.00 | 0.01 | 0.01 | 66 | 1011.8 |
| 20260507083616 | 46 | 63 | 0.0 | 4.0 | 0.00 | 0.01 | 0.01 | 65 | 1011.8 |
| 20260507083127 | 46 | 65 | 1.0 | 4.0 | 0.00 | 0.01 | 0.01 | 65 | 1011.8 |
| 20260507082621 | 46 | 87 | 1.0 | 4.0 | 0.00 | 0.01 | 0.01 | 64 | 1011.8 |
| 20260507082115 | 46 | 78 | 1.0 | 8.0 | 0.00 | 0.01 | 0.01 | 65 | 1011.8 |
| 20260507081629 | 46 | 79 | 4.0 | 8.0 | 0.00 | 0.01 | 0.01 | 65 | 1011.8 |
| 20260507081124 | 46 | 70 | 2.0 | 7.0 | 0.00 | 0.01 | 0.01 | 66 | 1011.8 |
| 20260507080618 | 47 | 68 | 2.0 | 7.0 | 0.00 | 0.01 | 0.01 | 65 | 1011.8 |
| 20260507080131 | 47 | 93 | 2.0 | 9.0 | 0.00 | 0.01 | 0.01 | 65 | 1011.7 |
| 20260507075627 | 47 | 67 | 4.0 | 9.0 | 0.00 | 0.01 | 0.01 | 65 | 1011.7 |
| 20260507075142 | 47 | 62 | 4.0 | 6.0 | 0.00 | 0.01 | 0.01 | 65 | 1011.6 |
| 20260507074644 | 47 | 62 | 4.0 | 6.0 | 0.00 | 0.01 | 0.01 | 64 | 1011.6 |
| 20260507074137 | 47 | 86 | 1.0 | 6.0 | 0.00 | 0.01 | 0.01 | 64 | 1011.7 |
| 20260507073623 | 47 | 70 | 4.0 | 9.0 | 0.00 | 0.01 | 0.01 | 65 | 1011.7 |
| 20260507073137 | 47 | 60 | 4.0 | 9.0 | 0.00 | 0.01 | 0.01 | 64 | 1011.7 |
| 20260507072645 | 47 | 60 | 4.0 | 7.0 | 0.00 | 0.01 | 0.01 | 65 | 1011.7 |
| 20260507072157 | 47 | 46 | 4.0 | 7.0 | 0.00 | 0.01 | 0.01 | 65 | 1011.7 |
| 20260507071625 | 47 | 51 | 3.0 | 8.0 | 0.00 | 0.01 | 0.01 | 65 | 1011.9 |
| 20260507071121 | 47 | 58 | 3.0 | 6.0 | 0.00 | 0.01 | 0.01 | 65 | 1011.9 |
| 20260507070634 | 47 | 35 | 2.0 | 6.0 | 0.00 | 0.01 | 0.01 | 64 | 1011.9 |
| 20260507070122 | 47 | 73 | 2.0 | 4.0 | 0.00 | 0.01 | 0.01 | 65 | 1011.9 |
| 20260507065658 | 47 | 66 | 0.0 | 3.0 | 0.00 | 0.01 | 0.01 | 65 | 1012.0 |
| 20260507065123 | 47 | 66 | 0.0 | 5.0 | 0.00 | 0.01 | 0.01 | 64 | 1012.0 |
| 20260507064618 | 47 | 68 | 3.0 | 5.0 | 0.00 | 0.01 | 0.01 | 64 | 1012.0 |
| 20260507064130 | 47 | 58 | 0.0 | 5.0 | 0.00 | 0.01 | 0.01 | 64 | 1012.1 |
| 20260507063623 | 47 | 41 | 0.0 | 6.0 | 0.00 | 0.01 | 0.01 | 63 | 1012.1 |
| 20260507063117 | 48 | 52 | 2.0 | 6.0 | 0.00 | 0.01 | 0.01 | 66 | 1012.2 |
| 20260507062632 | 48 | 53 | 0.0 | 6.0 | 0.00 | 0.01 | 0.01 | 66 | 1012.2 |
| 20260507062119 | 48 | 53 | 1.0 | 6.0 | 0.00 | 0.01 | 0.01 | 65 | 1012.2 |
| 20260507061654 | 48 | 61 | 1.0 | 4.0 | 0.00 | 0.01 | 0.01 | 66 | 1012.2 |
| 20260507061123 | 48 | 60 | 0.0 | 2.0 | 0.00 | 0.01 | 0.01 | 66 | 1012.2 |
| 20260507060636 | 49 | 75 | 0.0 | 5.0 | 0.00 | 0.01 | 0.01 | 65 | 1012.2 |
| 20260507060121 | 48 | 73 | 3.0 | 5.0 | 0.00 | 0.01 | 0.01 | 68 | 1012.2 |
| 20260507055634 | 49 | 49 | 0.0 | 1.0 | 0.00 | 0.01 | 0.01 | 70 | 1012.2 |
| 20260507055120 | 49 | 49 | 0.0 | 1.0 | 0.00 | 0.01 | 0.01 | 69 | 1012.3 |
| 20260507054655 | 49 | 49 | 0.0 | 4.0 | 0.00 | 0.01 | 0.01 | 68 | 1012.3 |
| 20260507054122 | 49 | 48 | 1.0 | 5.0 | 0.00 | 0.01 | 0.01 | 70 | 1012.3 |
| 20260507053655 | 49 | 35 | 1.0 | 5.0 | 0.00 | 0.01 | 0.01 | 70 | 1012.4 |
| 20260507053121 | 49 | 49 | 0.0 | 6.0 | 0.00 | 0.01 | 0.01 | 71 | 1012.4 |
| 20260507052638 | 49 | 17 | 2.0 | 6.0 | 0.00 | 0.01 | 0.01 | 71 | 1012.3 |
| 20260507052124 | 49 | 25 | 0.0 | 3.0 | 0.00 | 0.01 | 0.01 | 72 | 1012.3 |
| 20260507051618 | 49 | 22 | 1.0 | 5.0 | 0.00 | 0.01 | 0.01 | 72 | 1012.4 |
| 20260507051134 | 49 | 20 | 0.0 | 6.0 | 0.00 | 0.01 | 0.01 | 72 | 1012.4 |
| 20260507050621 | 49 | 39 | 3.0 | 6.0 | 0.00 | 0.01 | 0.01 | 73 | 1012.4 |
| 20260507050117 | 49 | 14 | 2.0 | 5.0 | 0.00 | 0.01 | 0.01 | 73 | 1012.4 |
| 20260507045633 | 49 | 10 | 0.0 | 3.0 | 0.00 | 0.01 | 0.01 | 73 | 1012.4 |
| 20260507045120 | 49 | 5 | 0.0 | 2.0 | 0.00 | 0.01 | 0.01 | 73 | 1012.4 |
| 20260507044615 | 49 | 5 | 0.0 | 3.0 | 0.00 | 0.01 | 0.01 | 73 | 1012.5 |
| 20260507044126 | 49 | 5 | 0.0 | 5.0 | 0.00 | 0.01 | 0.01 | 72 | 1012.6 |
| 20260507043620 | 49 | 10 | 2.0 | 6.0 | 0.00 | 0.01 | 0.01 | 72 | 1012.4 |
| 20260507043133 | 49 | 343 | 3.0 | 6.0 | 0.00 | 0.01 | 0.01 | 73 | 1012.4 |
| 20260507042629 | 50 | 10 | 0.0 | 1.0 | 0.00 | 0.01 | 0.01 | 74 | 1012.4 |
| 20260507042121 | 50 | 10 | 0.0 | 3.0 | 0.00 | 0.01 | 0.01 | 73 | 1012.4 |
| 20260507041656 | 50 | 10 | 0.0 | 4.0 | 0.00 | 0.01 | 0.01 | 74 | 1012.3 |
| 20260507041144 | 50 | 10 | 1.0 | 5.0 | 0.00 | 0.01 | 0.01 | 74 | 1012.5 |
| 20260507040615 | 50 | 14 | 1.0 | 3.0 | 0.00 | 0.01 | 0.01 | 75 | 1012.4 |
| 20260507040148 | 50 | 10 | 0.0 | 2.0 | 0.00 | 0.01 | 0.01 | 75 | 1012.4 |
| 20260507035637 | 50 | 10 | 0.0 | 10.0 | 0.00 | 0.01 | 0.01 | 73 | 1012.7 |
| 20260507035124 | 50 | 10 | 4.0 | 10.0 | 0.00 | 0.01 | 0.01 | 73 | 1012.6 |
| 20260507034639 | 50 | 16 | 2.0 | 5.0 | 0.00 | 0.01 | 0.01 | 75 | 1012.6 |
| 20260507034133 | 51 | 14 | 1.0 | 3.0 | 0.00 | 0.01 | 0.01 | 77 | 1012.3 |
| 20260507033619 | 51 | 5 | 0.0 | 5.0 | 0.00 | 0.01 | 0.01 | 78 | 1012.2 |
| 20260507033133 | 51 | 360 | 0.0 | 8.0 | 0.00 | 0.01 | 0.01 | 77 | 1012.4 |
| 20260507032643 | 51 | 360 | 1.0 | 8.0 | 0.00 | 0.01 | 0.01 | 77 | 1012.2 |
| 20260507032136 | 51 | 324 | 4.0 | 9.0 | 0.00 | 0.01 | 0.01 | 77 | 1012.1 |
| 20260507031624 | 51 | 304 | 2.0 | 7.0 | 0.00 | 0.01 | 0.01 | 78 | 1012.0 |
| 20260507031119 | 51 | 327 | 1.0 | 6.0 | 0.00 | 0.01 | 0.01 | 78 | 1012.1 |
| 20260507030629 | 51 | 16 | 1.0 | 8.0 | 0.00 | 0.01 | 0.01 | 78 | 1012.1 |
| 20260507030145 | 51 | 326 | 4.0 | 8.0 | 0.00 | 0.01 | 0.01 | 79 | 1012.1 |
| 20260507025640 | 51 | 5 | 1.0 | 4.0 | 0.00 | 0.01 | 0.01 | 80 | 1012.1 |
| 20260507025132 | 51 | 25 | 0.0 | 4.0 | 0.00 | 0.01 | 0.01 | 81 | 1012.2 |
| 20260507024640 | 51 | 25 | 0.0 | 5.0 | 0.00 | 0.01 | 0.01 | 81 | 1012.2 |
| 20260507024135 | 51 | 25 | 1.0 | 5.0 | 0.00 | 0.01 | 0.01 | 81 | 1012.2 |
| 20260507023622 | 51 | 38 | 0.0 | 0.0 | 0.00 | 0.01 | 0.01 | 82 | 1012.0 |
| 20260507023117 | 51 | 38 | 0.0 | 0.0 | 0.00 | 0.01 | 0.01 | 81 | 1012.0 |
| 20260507022633 | 51 | 38 | 0.0 | 0.0 | 0.00 | 0.01 | 0.01 | 81 | 1012.0 |
| 20260507022120 | 51 | 38 | 0.0 | 0.0 | 0.00 | 0.01 | 0.01 | 81 | 1011.6 |
| 20260507021655 | 51 | 38 | 0.0 | 0.0 | 0.00 | 0.01 | 0.01 | 81 | 1011.3 |
| 20260507021121 | 51 | 38 | 0.0 | 0.0 | 0.00 | 0.01 | 0.01 | 81 | 1011.4 |
| 20260507020635 | 51 | 38 | 0.0 | 0.0 | 0.00 | 0.01 | 0.01 | 81 | 1011.4 |
| 20260507020122 | 52 | 38 | 0.0 | 0.0 | 0.00 | 0.01 | 0.01 | 81 | 1011.3 |
| 20260507015640 | 52 | 38 | 0.0 | 0.0 | 0.00 | 0.01 | 0.01 | 80 | 1011.4 |
| 20260507015133 | 52 | 38 | 0.0 | 0.0 | 0.00 | 0.01 | 0.01 | 80 | 1011.5 |
| 20260507014621 | 52 | 38 | 0.0 | 0.0 | 0.00 | 0.01 | 0.01 | 80 | 1011.4 |
| 20260507014137 | 52 | 39 | 0.0 | 5.0 | 0.00 | 0.01 | 0.01 | 80 | 1011.4 |
| 20260507013623 | 52 | 31 | 2.0 | 6.0 | 0.00 | 0.01 | 0.01 | 80 | 1011.2 |
| 20260507013153 | 52 | 33 | 3.0 | 6.0 | 0.00 | 0.01 | 0.01 | 80 | 1011.2 |
| 20260507012628 | 52 | 343 | 0.0 | 0.0 | 0.00 | 0.01 | 0.01 | 80 | 1011.3 |
| 20260507012121 | 52 | 327 | 0.0 | 4.0 | 0.00 | 0.01 | 0.01 | 79 | 1011.6 |
| 20260507011615 | 52 | 326 | 1.0 | 4.0 | 0.00 | 0.01 | 0.01 | 79 | 1011.9 |
| 20260507011130 | 52 | 345 | 1.0 | 4.0 | 0.00 | 0.01 | 0.01 | 79 | 1011.6 |
| 20260507010623 | 52 | 314 | 1.0 | 8.0 | 0.00 | 0.01 | 0.01 | 79 | 1011.7 |
| 20260507010136 | 52 | 301 | 5.0 | 8.0 | 0.00 | 0.01 | 0.01 | 80 | 1011.7 |
| 20260507005624 | 52 | 311 | 2.0 | 5.0 | 0.00 | 0.01 | 0.01 | 81 | 1011.7 |
| 20260507005119 | 52 | 310 | 2.0 | 4.0 | 0.00 | 0.01 | 0.01 | 81 | 1011.8 |
| 20260507004653 | 52 | 315 | 0.0 | 3.0 | 0.00 | 0.01 | 0.01 | 81 | 1011.8 |
| 20260507004122 | 52 | 316 | 0.0 | 2.0 | 0.00 | 0.01 | 0.01 | 82 | 1012.0 |
| 20260507003636 | 52 | 309 | 0.0 | 0.0 | 0.00 | 0.01 | 0.01 | 82 | 1012.1 |
| 20260507003124 | 52 | 309 | 0.0 | 0.0 | 0.00 | 0.01 | 0.01 | 82 | 1012.0 |
| 20260507002618 | 52 | 309 | 0.0 | 0.0 | 0.00 | 0.01 | 0.01 | 82 | 1011.9 |
| 20260507002131 | 52 | 309 | 0.0 | 3.0 | 0.00 | 0.01 | 0.01 | 81 | 1011.6 |
| 20260507001640 | 52 | 309 | 0.0 | 3.0 | 0.00 | 0.01 | 0.01 | 81 | 1011.3 |
| 20260507001135 | 52 | 295 | 1.0 | 7.0 | 0.00 | 0.01 | 0.01 | 82 | 1011.3 |
| 20260507000622 | 52 | 290 | 4.0 | 7.0 | 0.00 | 0.01 | 0.01 | 82 | 1011.7 |
| 20260507000135 | 52 | 284 | 0.0 | 10.0 | 0.00 | 0.01 | 0.01 | 82 | 1011.6 |
| 20260506235622 | 52 | 266 | 5.0 | 12.0 | 0.00 | 0.01 | 0.01 | 82 | 1011.7 |
| 20260506235135 | 52 | 298 | 8.0 | 12.0 | 0.00 | 0.01 | 0.01 | 83 | 1011.4 |